Location: Oak Glen
(34.0495°N, 116.9470°E)
Time: 17:16:23
(UTC-07:00)

Vanguard 1 - Pass Details

Date: 24 June 2018
Orbit: 650 x 3832 km, 34.2° (Epoch: 16 July)

Event Time Altitude Azimuth Distance (km) Brightness Sun altitude
Rises 17:01:54 0° 273° (W) 4,884 13.1 34.4°
Reaches altitude 10° 17:04:30 10° 273° (W) 4,206 12.9 34.9°
Maximum altitude 17:17:00 90° 5° (N) 2,771 13.0 37.5°
Drops below altitude 10° 17:39:01 10° 98° (E) 6,842 15.5 42.1°
Sets 17:44:40 0° 99° (E) 7,965 15.5 43.2°
